Regional Weather Roundup
Issued by NWS

Home | Current Version | Previous Version | Graphics & Text | Print | Product List | Glossary On
Versions: 1 2 3 4 5 6 7 8 9 10 11 12 13 14 15 16 17 18 19 20 21 22 23 24 25 26 27 28 29 30 31 32 33 34 35 36 37 38 39 40 41 42 43 44 45 46 47 48 49 50
000
ASUS43 KLMK 221410
RWRKY
KENTUCKY REGIONAL WEATHER ROUNDUP
NATIONAL WEATHER SERVICE LOUISVILLE KY
1000 AM EDT MON MAY 22 2017

NOTE "FAIR" INDICATES FEW OR NO CLOUDS BELOW 12,000 FEET
WITH NO SIGNIFICANT WEATHER AND/OR OBSTRUCTIONS TO VISIBILITY.

KYZ001>023-026-027-061>063-070>075-221500-
WESTERN AND SOUTH CENTRAL KENTUCKY

CITY           SKY/WX    TMP DP  RH WIND       PRES   REMARKS
PADUCAH        CLOUDY    62  51  67 SE6       30.15S
HENDERSON      CLOUDY    64  49  57 N3        30.16F
OWENSBORO      PTSUNNY   63  50  62 SE3       30.16F
HOPKINSVILLE   CLOUDY    63  51  65 E9        30.16S
BOWLING GREEN  CLOUDY    64  51  62 E8        30.17S
GLASGOW        CLOUDY    62  48  60 E8        30.17R
$$

KYZ024-025-028>034-038-045-046-053-221500-
NORTH CENTRAL KENTUCKY

CITY           SKY/WX    TMP DP  RH WIND       PRES   REMARKS
LOUISVILLE/SDF CLOUDY    63  47  55 CALM      30.16F
LOUISVILLE/LOU CLOUDY    63  45  51 N6        30.17F
FORT KNOX      CLOUDY    60  47  61 CALM      30.15F
$$

KYZ035>037-039>044-047>052-055>060-089>105-221500-
NORTHEAST KENTUCKY

CITY           SKY/WX    TMP DP  RH WIND       PRES   REMARKS
LEXINGTON      MOSUNNY   61  42  49 N9        30.18F
COVINGTON      MOSUNNY   59  43  55 NW16      30.17R
FRANKFORT      MOSUNNY   60  45  57 NW7       30.17F
$$

KYZ054-064>069-076>088-106>120-221500-
SOUTHEAST KENTUCKY

CITY           SKY/WX    TMP DP  RH WIND       PRES   REMARKS
JACKSON        PTSUNNY   60  49  66 NW6       30.18R
LONDON         MOSUNNY   60  45  57 N10       30.18F
SOMERSET       MOSUNNY   59  46  63 N8        30.18F
MIDDLESBORO    CLOUDY    62  56  82 NE6       30.16F
MONTICELLO     NOT AVBL
$$




USA.gov is the U.S. government's official web portal to all federal, state and local government web resources and services.